period_start,C,m1,H,J0,J1,J2,J3,J4,J5,JA,JB,JC,JD,JJ,JK,JN,#
2017-04-23 00:01:48,0.12,1.37,0.00,24.20,26.72,30.05,14.60,48.58,1030.82,2032.89,2950.86,2724.56,3122.29,600.31,602.13,16.20,0000 0000 0000 0000 000000
2017-04-23 00:06:50,0.10,1.38,0.00,24.18,26.72,30.05,14.53,48.58,1030.79,2032.90,2948.94,2723.29,3120.80,599.62,601.58,16.25,0000 0000 0000 0000 000000
2017-04-23 00:11:51,0.13,1.38,0.00,24.20,26.72,30.04,14.58,48.52,1030.81,2032.91,2946.43,2721.58,3118.95,600.11,602.16,16.30,0000 0000 0000 0000 000000
2017-04-23 00:16:53,0.10,1.39,0.00,24.16,26.71,30.04,14.62,48.64,1030.81,2032.93,2944.37,2720.23,3117.37,599.99,602.02,16.35,0000 0000 0000 0000 000000
2017-04-23 00:21:54,0.13,1.39,0.00,24.14,26.70,30.03,14.63,48.65,1030.84,2032.94,2942.24,2718.71,3115.69,600.37,602.51,16.40,0000 0000 0000 0000 000000
2017-04-23 00:26:56,0.09,1.40,0.00,24.19,26.70,30.02,14.55,48.57,1030.83,2032.92,2940.19,2717.30,3114.08,599.75,601.66,16.45,0000 0000 0000 0000 000000
2017-04-23 00:31:57,0.12,1.41,0.00,24.21,26.70,30.02,14.66,48.58,1030.82,2032.95,2938.14,2715.86,3112.50,600.23,602.07,16.50,0000 0000 0000 0000 000000
2017-04-23 00:36:58,0.10,1.41,0.00,24.20,26.70,30.01,14.58,48.62,1030.84,2032.89,2935.95,2714.49,3110.83,600.08,602.02,16.55,0000 0000 0000 0000 000000
2017-04-23 00:42:00,0.13,1.42,0.00,24.20,26.70,30.01,14.66,48.65,1030.84,2032.91,2933.45,2712.78,3109.00,599.98,601.94,16.60,0000 0000 0000 0000 000000
2017-04-23 00:47:01,0.12,1.42,0.00,24.20,26.70,30.02,14.52,48.61,1030.83,2032.91,2931.12,2711.25,3107.26,600.10,602.01,16.65,0000 0000 0000 0000 000000
2017-04-23 00:52:02,0.14,1.43,0.00,24.18,26.71,30.02,14.62,48.59,1030.87,2032.90,2928.44,2709.45,3105.21,600.07,602.07,16.70,0000 0000 0000 0000 000000
2017-04-23 00:57:03,0.09,1.44,0.00,24.21,26.72,30.02,14.50,48.52,1030.91,2032.89,2926.43,2708.10,3103.67,599.81,601.74,16.75,0000 0000 0000 0000 000000
2017-04-23 01:02:04,0.10,1.44,0.00,24.20,26.72,30.03,14.73,48.65,1030.84,2032.87,2924.50,2706.85,3102.18,600.20,601.98,16.80,0000 0000 0000 0000 000000
2017-04-23 01:07:06,0.07,1.45,0.00,24.19,26.72,30.03,14.64,48.73,1030.83,2032.68,2922.85,2705.68,3100.95,600.30,602.13,16.85,0000 0000 0000 0000 000000
2017-04-23 01:12:07,0.08,1.45,0.00,24.17,26.72,30.03,14.59,48.70,1030.83,2032.46,2920.91,2704.36,3099.46,599.83,601.81,16.90,0000 0000 0000 0000 000000
2017-04-23 01:17:08,0.11,1.46,0.00,24.19,26.73,30.03,14.57,48.65,1030.81,2032.45,2918.90,2703.03,3097.91,599.60,601.50,16.95,0000 0000 0000 0000 000000
2017-04-23 01:22:10,0.09,1.46,0.00,24.21,26.75,30.04,14.63,48.71,1030.81,2032.30,2916.97,2701.67,3096.45,600.21,601.99,17.00,0000 0000 0000 0000 000000
2017-04-23 01:27:11,0.12,1.47,0.00,24.23,26.75,30.05,14.53,48.60,1030.85,2032.26,2914.70,2700.16,3094.62,599.95,601.88,17.05,0000 0000 0000 0000 000000
2017-04-23 01:32:12,0.13,1.47,0.00,24.21,26.75,30.04,14.73,48.82,1030.85,2032.10,2912.01,2698.31,3092.57,600.35,602.24,17.10,0000 0000 0000 0000 000000
2017-04-23 01:37:13,0.13,1.48,0.00,24.22,26.76,30.04,14.64,48.68,1030.88,2032.07,2909.59,2696.65,3090.68,600.16,601.89,17.15,0000 0000 0000 0000 000000
2017-04-23 01:42:15,0.13,1.49,0.00,24.22,26.77,30.06,14.62,48.64,1031.01,2032.07,2907.14,2694.97,3088.73,599.95,601.83,17.20,0000 0000 0000 0000 000000
2017-04-23 01:47:16,0.09,1.49,0.00,24.21,26.77,30.07,14.59,48.68,1030.99,2032.03,2905.36,2693.68,3087.38,599.77,601.89,17.25,0000 0000 0000 0000 000000
2017-04-23 01:52:17,0.10,1.50,0.00,24.20,26.77,30.07,14.60,48.77,1031.09,2032.03,2903.42,2692.45,3085.83,600.02,602.09,17.30,0000 0000 0000 0000 000000
2017-04-23 01:57:19,0.08,1.50,0.00,24.20,26.78,30.07,14.50,48.64,1031.11,2032.05,2901.80,2691.33,3084.67,599.62,601.69,17.35,0000 0000 0000 0000 000000
2017-04-23 02:02:20,0.08,1.51,0.00,24.23,26.79,30.07,14.73,48.75,1031.01,2032.02,2900.33,2690.25,3083.41,600.60,602.60,17.40,0000 0000 0000 0000 000000
2017-04-23 02:07:21,0.09,1.51,0.00,24.24,26.80,30.08,14.61,48.68,1031.03,2032.02,2898.61,2689.12,3082.11,599.90,601.87,17.45,0000 0000 0000 0000 000000
2017-04-23 02:12:23,0.15,1.52,0.00,24.24,26.80,30.08,14.54,48.67,1031.16,2032.03,2896.07,2687.45,3080.11,599.91,601.96,17.50,0000 0000 0000 0000 000000
2017-04-23 02:17:24,0.13,1.52,0.00,24.21,26.80,30.08,14.66,48.78,1031.22,2032.01,2893.64,2685.80,3078.19,599.81,601.96,17.55,0000 0000 0000 0000 000000
2017-04-23 02:22:25,0.10,1.53,0.00,24.24,26.81,30.08,14.62,48.71,1031.17,2032.01,2891.71,2684.35,3076.57,599.99,602.11,17.60,0000 0000 0000 0000 000000
2017-04-23 02:27:26,0.09,1.53,0.00,24.22,26.82,30.08,14.54,48.72,1031.14,2032.01,2889.92,2683.17,3075.16,599.79,601.86,17.65,0000 0000 0000 0000 000000
2017-04-23 02:32:28,0.08,1.54,0.00,24.22,26.82,30.09,14.64,48.73,1031.13,2032.00,2888.24,2681.94,3073.77,600.16,602.22,17.70,0000 0000 0000 0000 000000
2017-04-23 02:37:29,0.09,1.54,0.00,24.24,26.83,30.09,14.71,48.74,1031.12,2032.00,2886.70,2680.82,3072.57,600.35,602.29,17.75,0000 0000 0000 0000 000000
2017-04-23 02:42:30,0.09,1.55,0.00,24.24,26.85,30.10,14.56,48.67,1031.11,2032.00,2885.07,2679.66,3071.25,599.81,601.75,17.80,0000 0000 0000 0000 000000
2017-04-23 02:47:32,0.10,1.55,0.00,24.23,26.85,30.11,14.64,48.77,1031.18,2032.00,2883.23,2678.45,3069.82,599.99,602.07,17.85,0000 0000 0000 0000 000000
2017-04-23 02:52:33,0.10,1.56,0.00,24.18,26.86,30.11,14.71,48.77,1031.11,2032.00,2881.39,2677.01,3068.28,600.10,602.33,17.90,0000 0000 0000 0000 000000
2017-04-23 02:57:34,0.16,1.57,0.00,24.16,26.87,30.12,14.65,48.72,1030.90,2032.00,2878.96,2675.19,3066.13,599.65,601.76,17.95,0000 0000 0000 0000 000000
2017-04-23 03:02:35,0.12,1.57,0.00,24.20,26.87,30.13,14.71,48.77,1030.90,2032.00,2876.78,2673.58,3064.30,600.14,602.12,18.00,0000 0000 0000 0000 000000
2017-04-23 03:07:37,0.16,1.58,0.00,24.20,26.88,30.13,14.64,48.78,1031.07,2032.00,2874.07,2671.68,3062.11,600.08,602.11,18.05,0000 0000 0000 0000 000000
2017-04-23 03:12:39,0.15,1.59,0.00,24.19,26.89,30.14,14.60,48.77,1031.02,2031.99,2871.20,2669.69,3059.79,600.01,602.07,18.10,0000 0000 0000 0000 000000
2017-04-23 03:17:40,0.13,1.59,0.00,24.21,26.90,30.14,14.64,48.79,1031.13,2031.99,2868.71,2667.97,3057.86,600.11,602.19,18.15,0000 0000 0000 0000 000000
2017-04-23 03:22:41,0.13,1.60,0.00,24.18,26.90,30.15,14.57,48.73,1031.20,2031.99,2866.32,2666.32,3056.03,600.09,602.27,18.20,0000 0000 0000 0000 000000
2017-04-23 03:27:42,0.16,1.61,0.00,24.25,26.91,30.14,14.62,48.79,1031.23,2031.99,2863.63,2664.49,3053.89,600.03,602.15,18.25,0000 0000 0000 0000 000000
2017-04-23 03:32:43,0.14,1.62,0.00,24.21,26.92,30.14,14.68,48.82,1031.26,2031.98,2860.87,2662.53,3051.67,600.31,602.51,18.30,0000 0000 0000 0000 000000
2017-04-23 03:37:45,0.14,1.62,0.00,24.19,26.92,30.15,14.62,48.72,1031.26,2031.97,2858.40,2660.76,3049.71,600.25,602.35,18.35,0000 0000 0000 0000 000000
2017-04-23 03:42:46,0.15,1.63,0.00,24.08,26.92,30.14,14.60,48.81,1031.26,2031.99,2855.75,2658.98,3047.61,599.82,602.19,18.40,0000 0000 0000 0000 000000
2017-04-23 03:47:47,0.16,1.64,0.00,24.03,26.92,30.14,14.69,48.85,1031.25,2031.98,2852.72,2656.89,3045.27,599.98,602.50,18.45,0000 0000 0000 0000 000000
2017-04-23 03:52:48,0.20,1.65,0.00,24.19,26.92,30.13,14.65,48.75,1031.22,2031.98,2849.32,2654.50,3042.52,600.20,602.39,18.50,0000 0000 0000 0000 000000
2017-04-23 03:57:50,0.20,1.66,0.00,24.20,26.94,30.14,14.62,48.79,1031.22,2031.95,2845.62,2651.95,3039.59,600.03,602.16,18.55,0000 0000 0000 0000 000000
2017-04-23 04:02:51,0.13,1.67,0.00,24.19,26.94,30.13,14.54,48.80,1031.23,2031.91,2843.06,2650.14,3037.48,600.14,602.35,18.60,0000 0000 0000 0000 000000
2017-04-23 04:07:52,0.14,1.68,0.00,24.14,26.95,30.15,14.56,48.76,1031.26,2031.75,2840.18,2648.15,3035.20,600.07,602.38,18.65,0000 0000 0000 0000 000000
2017-04-23 04:12:54,0.15,1.68,0.00,24.07,26.95,30.14,14.57,48.83,1031.26,2031.61,2837.38,2646.18,3032.99,599.77,602.21,18.70,0000 0000 0000 0000 000000
2017-04-23 04:17:55,0.13,1.69,0.00,24.08,26.94,30.12,14.64,48.88,1031.26,2031.34,2834.64,2644.25,3030.77,600.13,602.54,18.75,0000 0000 0000 0000 000000
2017-04-23 04:22:56,0.17,1.70,0.00,24.29,26.94,30.11,14.68,48.91,1031.22,2031.35,2831.75,2642.21,3028.44,600.31,602.29,18.80,0000 0000 0000 0000 000000
2017-04-23 04:27:57,0.19,1.71,0.00,24.29,26.95,30.13,14.50,48.83,1031.24,2031.47,2828.36,2639.96,3025.86,599.54,601.58,18.85,0000 0000 0000 0000 000000
2017-04-23 04:32:59,0.17,1.72,0.00,24.25,26.95,30.14,14.55,48.87,1031.24,2031.26,2824.92,2637.62,3023.27,599.91,601.96,18.90,0000 0000 0000 0000 000000
2017-04-23 04:38:00,0.21,1.73,0.00,24.16,26.95,30.12,14.65,48.97,1031.25,2031.11,2821.06,2635.11,3020.35,599.92,602.12,18.95,0000 0000 0000 0000 000000
2017-04-23 04:43:01,0.19,1.74,0.00,24.13,26.94,30.10,14.65,48.80,1031.26,2031.28,2817.79,2632.89,3017.87,600.04,602.37,19.00,0000 0000 0000 0000 000000
2017-04-23 04:48:03,0.18,1.75,0.00,24.26,26.93,30.10,14.64,48.82,1031.26,2031.47,2814.82,2630.83,3015.49,600.30,602.29,19.05,0000 0000 0000 0000 000000
2017-04-23 04:53:04,0.16,1.76,0.00,24.34,26.93,30.12,14.58,48.78,1031.22,2031.33,2811.61,2628.64,3012.99,600.18,602.01,19.10,0000 0000 0000 0000 000000
2017-04-23 04:58:05,0.16,1.76,0.00,24.21,26.93,30.13,14.63,48.67,1031.23,2031.20,2808.47,2626.58,3010.59,600.12,602.14,19.15,0000 0000 0000 0000 000000
2017-04-23 05:03:06,0.14,1.77,0.00,24.21,26.92,30.10,14.67,48.88,1031.24,2031.07,2805.70,2624.72,3008.53,600.51,602.67,19.20,0000 0000 0000 0000 000000
2017-04-23 05:08:08,0.11,1.78,0.00,24.24,26.92,30.10,14.66,48.87,1031.23,2031.06,2803.48,2623.32,3006.91,600.22,602.31,19.25,0000 0000 0000 0000 000000
2017-04-23 05:13:08,0.11,1.78,0.00,24.38,26.92,30.12,14.66,48.75,1031.15,2031.07,2801.34,2622.05,3005.34,600.05,601.80,19.30,0000 0000 0000 0000 000000
2017-04-23 05:18:10,0.12,1.79,0.00,24.30,26.92,30.13,14.58,48.81,1031.24,2031.09,2799.31,2620.65,3003.71,599.94,601.89,19.35,0000 0000 0000 0000 000000
2017-04-23 05:23:11,0.11,1.80,0.00,24.28,26.92,30.11,14.62,48.80,1031.25,2031.05,2797.14,2619.24,3001.99,599.97,601.87,19.40,0000 0000 0000 0000 000000
2017-04-23 05:28:12,0.15,1.80,0.00,24.25,26.92,30.10,14.58,48.71,1031.25,2031.10,2794.72,2617.58,3000.12,600.32,602.40,19.45,0000 0000 0000 0000 000000
2017-04-23 05:33:14,0.18,1.81,0.00,24.40,26.92,30.12,14.69,48.73,1031.26,2031.11,2791.79,2615.53,2997.66,600.19,601.87,19.50,0000 0000 0000 0000 000000
2017-04-23 05:38:15,0.18,1.82,0.00,24.32,26.92,30.14,14.64,48.73,1031.26,2031.14,2788.65,2613.31,2995.14,599.89,601.86,19.55,0000 0000 0000 0000 000000
2017-04-23 05:43:16,0.19,1.83,0.00,24.29,26.92,30.11,14.68,48.73,1031.26,2031.08,2785.35,2611.04,2992.50,600.26,602.32,19.60,0000 0000 0000 0000 000000
2017-04-23 05:48:17,0.24,1.84,0.00,24.25,26.92,30.10,14.62,48.79,1031.26,2031.11,2781.23,2608.29,2989.29,600.04,602.13,19.65,0000 0000 0000 0000 000000
2017-04-23 05:53:19,0.17,1.85,0.00,24.39,26.93,30.12,14.65,48.70,1031.26,2031.07,2778.01,2605.99,2986.72,600.15,601.95,19.70,0000 0000 0000 0000 000000
2017-04-23 05:58:20,0.13,1.86,0.00,24.32,26.94,30.13,14.57,48.70,1031.25,2031.06,2775.66,2604.37,2984.81,599.73,601.69,19.75,0000 0000 0000 0000 000000
2017-04-23 06:03:21,0.12,1.87,0.00,24.34,26.94,30.10,14.56,48.65,1031.25,2031.08,2773.44,2602.83,2983.05,599.66,601.59,19.80,0000 0000 0000 0000 000000
2017-04-23 06:08:22,0.12,1.87,0.00,24.31,26.94,30.10,14.68,48.63,1031.26,2031.13,2771.51,2601.52,2981.47,600.22,602.13,19.85,0000 0000 0000 0000 000000
2017-04-23 06:13:24,0.12,1.88,0.00,24.47,26.95,30.12,14.54,48.60,1031.26,2031.06,2769.35,2599.96,2979.69,599.91,601.63,19.90,0000 0000 0000 0000 000000
2017-04-23 06:18:25,0.10,1.88,0.00,24.40,26.95,30.13,14.63,48.67,1031.26,2031.07,2767.58,2598.59,2978.18,599.99,601.79,19.95,0000 0000 0000 0000 000000
2017-04-23 06:23:26,0.10,1.89,0.00,24.36,26.95,30.09,14.55,48.71,1031.26,2031.05,2765.97,2597.42,2976.71,600.10,602.01,20.00,0000 0000 0000 0000 000000
2017-04-23 06:28:27,0.11,1.90,0.00,24.38,26.95,30.11,14.57,48.64,1031.26,2031.03,2764.06,2596.01,2975.07,599.85,601.73,20.06,0000 0000 0000 0000 000000
2017-04-23 06:33:28,0.18,1.90,0.00,24.44,26.96,30.13,14.58,48.72,1031.26,2031.03,2761.29,2594.14,2972.87,599.91,601.62,20.11,0000 0000 0000 0000 000000
2017-04-23 06:38:30,0.21,1.91,0.00,24.38,26.97,30.13,14.56,48.73,1031.26,2031.02,2757.84,2591.78,2970.08,600.20,601.84,20.16,0000 0000 0000 0000 000000
2017-04-23 06:43:31,0.31,1.93,0.00,24.34,26.97,30.10,14.60,48.83,1031.27,2031.01,2752.61,2588.15,2966.03,600.04,601.99,20.21,0000 0000 0000 0000 000000
2017-04-23 06:48:32,0.20,1.94,0.00,24.31,26.97,30.11,14.69,48.83,1031.27,2031.01,2748.71,2585.50,2962.89,600.56,602.48,20.26,0000 0000 0000 0000 000000
2017-04-23 06:53:34,0.13,1.95,0.00,24.40,26.97,30.13,14.56,48.76,1031.27,2031.00,2746.49,2583.87,2960.99,600.09,601.83,20.31,0000 0000 0000 0000 000000
2017-04-23 06:58:35,0.11,1.95,0.00,24.39,26.97,30.14,14.60,48.80,1031.27,2031.00,2744.53,2582.50,2959.42,600.13,601.88,20.36,0000 0000 0000 0000 000000
2017-04-23 07:03:36,0.08,1.96,0.00,24.34,26.97,30.11,14.59,48.77,1031.27,2031.00,2743.00,2581.46,2958.18,600.41,602.26,20.41,0000 0000 0000 0000 000000
2017-04-23 07:08:37,0.08,1.96,0.00,24.33,26.98,30.12,14.59,48.64,1031.27,2031.00,2741.54,2580.41,2956.90,599.85,601.78,20.46,0000 0000 0000 0000 000000
2017-04-23 07:13:38,0.10,1.97,0.00,24.42,26.99,30.15,14.65,48.71,1031.27,2030.99,2739.90,2579.23,2955.58,600.22,601.98,20.51,0000 0000 0000 0000 000000
2017-04-23 07:18:39,0.12,1.97,0.00,24.38,27.00,30.15,14.62,48.88,1031.28,2030.99,2737.89,2577.83,2953.86,599.92,601.74,20.56,0000 0000 0000 0000 000000
2017-04-23 07:23:41,0.11,1.98,0.00,24.36,27.00,30.11,14.52,48.83,1031.28,2030.99,2736.01,2576.49,2952.37,599.82,601.70,20.61,0000 0000 0000 0000 000000
2017-04-23 07:28:42,0.15,1.99,0.00,24.46,27.00,30.13,14.62,48.86,1031.28,2030.99,2733.67,2574.88,2950.44,600.19,601.85,20.66,0000 0000 0000 0000 000000
2017-04-23 07:33:43,0.12,1.99,0.00,24.48,27.00,30.17,14.63,48.78,1031.29,2030.98,2731.43,2573.27,2948.55,600.10,601.66,20.71,0000 0000 0000 0000 000000
2017-04-23 07:38:45,0.13,2.00,0.00,24.42,27.00,30.13,14.62,48.84,1031.34,2030.98,2729.41,2571.80,2946.83,600.16,601.95,20.76,0000 0000 0000 0000 000000
2017-04-23 07:43:46,0.14,2.01,0.00,24.41,27.00,30.11,14.64,48.78,1031.46,2030.98,2727.04,2570.29,2945.04,599.86,601.72,20.81,0000 0000 0000 0000 000000
2017-04-23 07:48:47,0.16,2.02,0.00,24.45,27.00,30.13,14.60,48.83,1031.53,2030.98,2724.36,2568.41,2942.91,600.10,601.95,20.86,0000 0000 0000 0000 000000
2017-04-23 07:53:48,0.15,2.02,0.00,24.48,27.00,30.17,14.55,48.76,1031.51,2030.97,2721.76,2566.65,2940.85,599.74,601.49,20.91,0000 0000 0000 0000 000000
2017-04-23 07:58:49,0.15,2.03,0.00,24.43,27.00,30.14,14.62,48.87,1031.44,2030.97,2719.21,2564.96,2938.81,599.91,601.79,20.96,0000 0000 0000 0000 000000
2017-04-23 08:03:51,0.18,2.04,0.00,24.39,27.00,30.12,14.54,48.87,1031.38,2030.95,2716.24,2562.97,2936.46,599.94,601.81,21.01,0000 0000 0000 0000 000000
2017-04-23 08:08:52,0.19,2.05,0.00,24.44,27.00,30.13,14.59,48.78,1031.41,2030.95,2713.03,2560.73,2933.92,599.98,601.78,21.06,0000 0000 0000 0000 000000
2017-04-23 08:13:53,0.20,2.06,0.00,24.45,27.00,30.14,14.58,48.77,1031.57,2030.94,2709.74,2558.65,2931.27,599.92,601.77,21.11,0000 0000 0000 0000 000000
2017-04-23 08:18:54,0.15,2.07,0.00,24.49,27.01,30.15,14.59,48.88,1031.59,2030.94,2706.96,2556.83,2929.14,599.86,601.60,21.16,0000 0000 0000 0000 000000
2017-04-23 08:23:56,0.11,2.07,0.00,24.51,27.01,30.13,14.60,48.63,1031.67,2030.92,2704.94,2555.49,2927.57,600.00,601.73,21.21,0000 0000 0000 0000 000000
2017-04-23 08:28:57,0.10,2.08,0.00,24.51,27.01,30.13,14.59,48.82,1031.71,2030.95,2703.11,2554.21,2926.02,600.19,601.96,21.26,0000 0000 0000 0000 000000
2017-04-23 08:33:58,0.07,2.08,0.00,24.49,27.01,30.13,14.53,48.77,1031.72,2030.94,2701.80,2553.27,2924.90,600.00,601.93,21.31,0000 0000 0000 0000 000000
2017-04-23 08:38:59,0.09,2.09,0.00,24.53,27.02,30.13,14.49,48.72,1031.74,2030.93,2700.28,2552.15,2923.66,599.72,601.57,21.36,0000 0000 0000 0000 000000
2017-04-23 08:44:00,0.11,2.09,0.00,24.52,27.02,30.12,14.57,48.76,1031.72,2030.87,2698.43,2550.88,2922.19,599.96,601.79,21.41,0000 0000 0000 0000 000000
2017-04-23 08:49:01,0.11,2.10,0.00,24.50,27.02,30.14,14.54,48.69,1031.73,2030.90,2696.68,2549.75,2920.80,599.70,601.45,21.46,0000 0000 0000 0000 000000
2017-04-23 08:54:02,0.03,2.10,0.00,24.53,27.02,30.16,14.63,48.73,1031.71,2030.93,2695.97,2549.03,2920.02,600.21,601.91,21.51,0000 0000 0000 0000 000000
2017-04-23 08:59:03,0.06,2.11,0.00,24.57,27.02,30.18,14.55,48.72,1031.71,2030.94,2695.14,2548.56,2919.44,599.83,601.62,21.56,0000 0000 0000 0000 000000
2017-04-23 09:04:05,0.02,2.11,0.00,24.49,27.02,30.16,14.64,48.74,1031.69,2030.90,2694.45,2548.01,2918.98,600.13,601.97,21.61,0000 0000 0000 0000 000000
2017-04-23 09:09:06,0.03,2.11,0.00,24.54,27.02,30.19,14.63,48.73,1031.72,2030.89,2693.92,2547.76,2918.45,599.97,601.72,21.66,0000 0000 0000 0000 000000
2017-04-23 09:14:07,0.04,2.11,0.00,24.55,27.03,30.17,14.63,48.64,1031.72,2030.90,2693.09,2547.03,2917.99,600.10,601.80,21.71,0000 0000 0000 0000 000000
2017-04-23 09:19:09,0.03,2.11,0.00,24.58,27.05,30.19,14.56,48.65,1031.75,2030.93,2692.66,2546.82,2917.32,599.64,601.40,21.76,0000 0000 0000 0000 000000
2017-04-23 09:24:10,0.07,2.12,0.00,24.55,27.05,30.18,14.61,48.75,1031.75,2030.90,2691.58,2546.05,2916.49,600.24,601.90,21.81,0000 0000 0000 0000 000000
2017-04-23 09:29:11,0.04,2.12,0.00,24.56,27.05,30.19,14.57,48.73,1031.75,2030.84,2690.89,2545.54,2916.00,599.93,601.66,21.86,0000 0000 0000 0000 000000
2017-04-23 09:34:13,0.02,2.12,0.00,24.59,27.05,30.20,14.53,48.65,1031.75,2030.71,2690.10,2545.01,2915.25,599.89,601.57,21.91,0000 0000 0000 0000 000000
2017-04-23 09:39:14,0.01,2.12,0.00,24.61,27.05,30.20,14.60,48.73,1031.75,2030.68,2689.90,2544.89,2914.99,600.24,601.90,21.96,0000 0000 0000 0000 000000
2017-04-23 09:44:15,0.06,2.12,0.00,24.62,27.07,30.21,14.59,48.84,1031.75,2030.52,2689.08,2544.11,2914.40,599.94,601.36,22.01,0000 0000 0000 0000 000000
2017-04-23 09:49:16,-0.00,2.12,0.00,24.61,27.07,30.21,14.61,48.77,1031.72,2030.52,2688.69,2543.99,2914.00,599.98,601.53,22.06,0000 0000 0000 0000 000000
2017-04-23 09:54:17,0.06,2.13,0.00,24.61,27.07,30.23,14.68,48.81,1031.64,2030.56,2688.03,2543.61,2913.60,600.40,601.92,22.11,0000 0000 0000 0000 000000
2017-04-23 09:59:18,-0.01,2.13,0.00,24.63,27.07,30.19,14.56,48.80,1031.48,2030.24,2687.34,2543.01,2913.01,599.84,601.25,22.16,0000 0000 0000 0000 000000
2017-04-23 10:04:20,0.04,2.13,0.00,24.64,27.07,30.25,14.55,48.77,1031.46,2030.19,2686.99,2542.70,2912.53,599.68,601.09,22.21,0000 0000 0000 0000 000000
2017-04-23 10:09:21,0.03,2.13,0.00,24.62,27.07,30.23,14.59,48.76,1031.40,2030.09,2686.42,2542.04,2912.02,600.21,601.62,22.26,0000 0000 0000 0000 000000
2017-04-23 10:14:22,0.01,2.13,0.00,24.63,27.08,30.23,14.66,48.64,1031.32,2030.08,2685.99,2541.96,2911.81,600.38,601.69,22.31,0000 0000 0000 0000 000000
2017-04-23 10:19:23,0.06,2.13,0.00,24.62,27.09,30.23,14.48,48.63,1031.35,2030.07,2685.24,2541.27,2911.06,599.58,601.07,22.36,0000 0000 0000 0000 000000
2017-04-23 10:24:24,0.01,2.13,0.00,24.62,27.09,30.25,14.60,48.77,1031.50,2030.06,2684.86,2541.00,2910.73,600.00,601.42,22.41,0000 0000 0000 0000 000000
2017-04-23 10:29:26,0.05,2.14,0.00,24.63,27.10,30.26,14.54,48.69,1031.42,2030.03,2684.07,2540.55,2910.03,599.95,601.31,22.46,0000 0000 0000 0000 000000
2017-04-23 10:34:27,0.02,2.14,0.00,24.64,27.10,30.19,14.61,48.71,1031.32,2030.03,2683.71,2540.03,2909.82,599.83,601.14,22.51,0000 0000 0000 0000 000000
2017-04-23 10:39:28,0.02,2.14,0.00,24.65,27.10,30.22,14.49,48.63,1031.28,2030.02,2683.04,2539.98,2909.08,600.09,601.51,22.56,0000 0000 0000 0000 000000
2017-04-23 10:44:29,0.04,2.14,0.00,24.63,27.10,30.21,14.53,48.71,1031.30,2030.01,2682.58,2539.38,2908.92,599.66,601.09,22.61,0000 0000 0000 0000 000000
2017-04-23 10:49:31,0.03,2.14,0.00,24.61,27.10,30.24,14.59,48.84,1031.29,2030.02,2682.00,2539.00,2908.20,599.88,601.04,22.66,0000 0000 0000 0000 000000
2017-04-23 10:54:32,0.03,2.14,0.00,24.62,27.10,30.24,14.56,48.66,1031.28,2030.03,2681.32,2538.75,2907.99,599.69,601.10,22.71,0000 0000 0000 0000 000000
2017-04-23 10:59:34,0.03,2.15,0.00,24.63,27.10,30.24,14.61,48.67,1031.28,2030.04,2680.98,2538.06,2907.47,600.57,601.97,22.76,0000 0000 0000 0000 000000
2017-04-23 11:04:35,0.02,2.15,0.00,24.61,27.10,30.20,14.62,48.76,1031.28,2030.03,2680.16,2537.98,2907.00,600.15,601.51,22.81,0000 0000 0000 0000 000000
2017-04-23 11:09:36,0.04,2.15,0.00,24.63,27.10,30.21,14.56,48.72,1031.28,2030.04,2679.93,2537.46,2906.58,600.16,601.48,22.86,0000 0000 0000 0000 000000
2017-04-23 11:14:38,0.03,2.15,0.00,24.61,27.10,30.23,14.52,48.45,1031.27,2030.04,2679.16,2537.02,2906.03,599.56,600.88,22.91,0000 0000 0000 0000 000000
2017-04-23 11:19:39,0.01,2.15,0.00,24.61,27.10,30.23,14.47,48.53,1031.27,2030.02,2678.82,2536.92,2905.80,599.59,601.03,22.96,0000 0000 0000 0000 000000
2017-04-23 11:24:40,0.05,2.16,0.00,24.63,27.10,30.19,14.59,48.50,1031.27,2030.01,2678.06,2536.21,2905.08,599.99,601.39,23.01,0000 0000 0000 0000 000000
2017-04-23 11:29:42,0.01,2.16,0.00,24.64,27.09,30.18,14.52,48.52,1031.26,2030.00,2677.72,2536.00,2904.96,599.95,601.20,23.06,0000 0000 0000 0000 000000
2017-04-23 11:34:43,0.02,2.16,0.00,24.61,27.07,30.21,14.62,48.70,1031.26,2030.02,2677.03,2535.95,2904.40,600.14,601.56,23.11,0000 0000 0000 0000 000000
2017-04-23 11:39:44,0.03,2.16,0.00,24.59,27.08,30.25,14.58,48.70,1031.26,2030.02,2676.95,2535.27,2904.03,599.90,601.23,23.16,0000 0000 0000 0000 000000
2017-04-23 11:44:46,0.02,2.16,0.00,24.60,27.08,30.23,14.55,48.59,1031.26,2030.04,2676.17,2535.00,2903.93,599.93,601.24,23.21,0000 0000 0000 0000 000000
2017-04-23 11:49:47,0.03,2.16,0.00,24.54,27.07,30.20,14.56,48.60,1031.26,2030.03,2675.74,2534.85,2903.23,599.91,601.46,23.26,0000 0000 0000 0000 000000
2017-04-23 11:54:48,0.03,2.17,0.00,24.59,27.07,30.20,14.59,48.73,1031.26,2030.03,2675.05,2534.15,2902.99,600.31,601.70,23.31,0000 0000 0000 0000 000000
2017-04-23 11:59:49,0.02,2.17,0.00,24.62,27.07,30.20,14.51,48.60,1031.21,2030.03,2674.79,2533.99,2902.50,599.65,601.05,23.36,0000 0000 0000 0000 000000
2017-04-23 12:04:51,0.04,2.17,0.00,24.59,27.07,30.19,14.51,48.64,1031.19,2030.02,2674.03,2533.65,2902.01,600.27,601.61,23.41,0000 0000 0000 0000 000000
2017-04-23 12:09:52,0.04,2.17,0.00,24.58,27.07,30.19,14.56,48.64,1030.98,2030.02,2673.50,2533.03,2901.56,599.99,601.18,23.46,0000 0000 0000 0000 000000
2017-04-23 12:14:53,0.01,2.17,0.00,24.57,27.07,30.19,14.58,48.67,1030.97,2030.01,2673.00,2532.97,2901.01,599.89,601.05,23.51,0000 0000 0000 0000 000000
2017-04-23 12:19:54,0.04,2.17,0.00,24.57,27.06,30.18,14.66,48.61,1030.96,2030.04,2672.52,2532.51,2900.92,600.10,601.31,23.56,0000 0000 0000 0000 000000
2017-04-23 12:24:56,0.02,2.18,0.00,24.57,27.05,30.18,14.50,48.42,1030.80,2030.01,2672.00,2532.01,2900.12,600.05,601.30,23.61,0000 0000 0000 0000 000000
2017-04-23 12:29:57,0.02,2.18,0.00,24.59,27.05,30.18,14.54,48.60,1030.81,2030.02,2671.51,2531.98,2900.00,600.08,601.16,23.66,0000 0000 0000 0000 000000
2017-04-23 12:34:58,0.02,2.18,0.00,24.57,27.05,30.19,14.59,48.56,1030.80,2030.04,2671.01,2531.73,2899.84,600.05,601.28,23.71,0000 0000 0000 0000 000000
2017-04-23 12:39:59,0.04,2.18,0.00,24.54,27.05,30.17,14.53,48.62,1030.82,2030.02,2670.74,2531.05,2899.09,599.75,601.05,23.76,0000 0000 0000 0000 000000
2017-04-23 12:45:01,0.01,2.18,0.00,24.51,27.05,30.20,14.55,48.58,1030.80,2030.05,2670.07,2531.00,2899.00,599.98,601.27,23.82,0000 0000 0000 0000 000000
2017-04-23 12:50:02,0.01,2.18,0.00,24.56,27.05,30.22,14.61,48.63,1030.79,2030.03,2669.92,2530.81,2898.72,600.44,601.73,23.87,0000 0000 0000 0000 000000
2017-04-23 12:55:04,0.05,2.18,0.00,24.52,27.04,30.16,14.59,48.54,1030.78,2030.02,2669.20,2530.11,2898.05,600.19,601.47,23.92,0000 0000 0000 0000 000000